Location: Poughquag
(41.6090°N, 73.6820°W)
Time: 08:11:18
(UTC-05:00)

STRAND 1 - Pass Details

Date: 01 December 2023
Orbit: 766 x 778 km, 98.4° (Epoch: 24 February)

Event Time Altitude Azimuth Distance (km) Brightness Sun altitude
Exits shadow 17:04:02 - 63° (ENE) 2,414 ? -7.3°
Reaches altitude 10° 17:04:48 10° 71° (ENE) 2,308 ? -7.5°
Maximum altitude 17:06:19 11° 88° (E) 2,220 ? -7.7°
Drops below altitude 10° 17:07:50 10° 106° (ESE) 2,304 ? -8.0°
Sets 17:12:02 0° 140° (SE) 3,225 ? -8.7°
